Location: Treviso
(45.6669°N, 12.2430°E)
Time: 08:26:11
(UTC+02:00)

ISS - Pass Details

Date: 23 May 2018
Orbit: 402 x 407 km, 51.6° (Epoch: 26 May)

Event Time Altitude Azimuth Distance (km) Brightness Sun altitude
Rises 00:35:52 0° 285° (WNW) 2,319 0.3 -23.4°
Reaches altitude 10° 00:38:09 10° 298° (WNW) 1,459 -0.6 -23.5°
Maximum altitude 00:41:00 27° 359° (N) 811 -1.6 -23.5°
Drops below altitude 10° 00:43:52 10° 60° (ENE) 1,458 -0.7 -23.6°
Sets 00:46:08 0° 73° (ENE) 2,318 0.2 -23.6°
